sat.trackr.live / text

‹ back to catalog

STARLINK-30754

NORAD 58124 · 2023-162G

PAYLOAD ACTIVE UNKNOWN

§ Identity

Operator
Country
US
Launch date
2023-10-22
Launch site
AFETR
Launch vehicle
Mass (kg)
RCS (m²)

Purposes: comms

External: N2YO · Heavens-Above · Gunter

§ Orbital elements

Epoch: 2026-09-20T07:37:30.957024Z

Period
94.27 min
Inclination
43.0052°
Eccentricity
0.0001420
Mean motion
15.27578717 rev/d
Perigee alt
482.1 km
Apogee alt
484.0 km
Semi-major
6,861.2 km
B*
5.4344e-5
RAAN
113.2593°
Arg perigee
266.0007°
Mean anomaly
94.0682°
Rev number
15,628

§ Raw data

STARLINK-307541 58124U 23162G   26263.31771941  .00001233  00000+0  54344-4 0  99982 58124  43.0052 113.2593 0001420 266.0007  94.0682 15.27578717156289

JSON: /api/v1/satellites/58124 · /tle

For live sub-satellite position, see the globe view (requires WebGL).

§ Visibility from observer

Set your observer location to see the next 7 days of passes ≥ 10°. The values pass through the URL so the page stays shareable.

No JS? Fill the form by hand. The geolocation button needs JavaScript.